Vorticity
nan nan nan nan nan nan nan nan nan nan nan nan nan nan nan nan nan nan nan nan nan nan nan nan nan nan nan nan nan nan nan nan nan
nan 7 11 12 10 9 8 6 5 5 6 4 2 3 6 6 6 4 4 6 6 5 4 5 5 6 7 7 8 7 7 6 nan
nan 5 4 8 16 15 9 5 4 4 6 5 2 3 6 7 5 5 2 6 4 5 5 8 6 5 6 6 7 8 7 7 nan
nan 6 6 6 7 19 20 6 4 4 5 5 4 2 5 8 6 5 6 8 2 5 11 10 6 4 5 5 5 6 7 9 nan
nan 4 7 9 7 9 20 17 7 6 4 5 4 3 3 7 5 7 10 8 3 5 11 9 7 7 5 4 4 5 6 7 nan
nan 3 6 6 9 8 9 20 17 6 8 7 4 2 4 7 6 9 10 6 6 3 6 8 8 9 5 4 5 5 5 6 nan
nan 3 3 5 7 7 7 12 20 11 6 9 8 6 7 6 7 10 10 6 5 3 6 7 8 8 5 5 4 5 5 5 nan
nan 6 5 3 6 9 5 9 12 12 8 5 6 7 7 7 9 11 9 6 5 4 7 7 7 8 5 5 4 5 5 6 nan
nan 8 7 8 6 6 8 7 6 12 13 8 5 4 8 7 9 12 9 6 4 6 10 6 7 8 6 5 4 4 5 6 nan
nan 7 8 7 7 7 7 8 7 7 11 14 9 6 7 6 7 11 11 7 5 7 8 6 6 7 6 5 5 5 6 5 nan
nan 7 7 7 7 7 8 7 8 8 6 13 14 8 7 9 6 7 13 11 6 6 7 7 6 5 6 4 5 4 6 5 nan
nan 8 7 6 6 8 8 8 9 8 8 7 14 16 7 10 8 6 8 10 11 9 8 8 7 5 6 4 5 5 5 5 nan
nan 8 7 7 8 8 8 8 8 8 7 8 7 12 15 10 9 6 6 7 10 11 10 10 8 7 7 6 4 5 4 5 nan
nan 8 8 8 9 8 8 8 8 7 8 7 7 6 12 12 10 9 6 6 6 10 12 11 7 7 8 8 8 6 4 5 nan
nan 9 8 9 8 7 7 7 9 9 7 9 11 11 10 11 11 9 7 8 7 7 8 8 10 12 7 7 10 8 6 5 nan
nan 8 7 8 7 7 8 9 8 9 9 11 12 13 15 10 8 9 9 7 8 7 8 6 8 13 10 6 10 11 7 5 nan
nan 8 8 8 8 7 8 9 9 7 8 11 9 10 14 13 11 7 10 8 8 8 7 6 7 8 9 11 12 12 9 6 nan
nan 8 8 8 8 7 7 7 8 8 7 9 7 7 6 13 17 10 8 8 6 9 9 8 7 5 8 11 12 13 13 9 nan
nan 8 9 9 9 8 7 8 8 8 6 10 11 6 5 5 8 16 13 10 9 7 7 9 9 7 8 10 11 13 12 10 nan
nan nan nan nan nan nan nan nan nan nan nan nan nan nan nan nan nan nan nan nan nan nan nan nan nan nan nan nan nan nan nan nan nan
CAPE
78 200 481 305 362 588 714 395 372 558 649 454 122 76 10 0 0 0 0 0 0 75 66 42 45 178 218 336 265 41 3 278 292
5 10 111 480 284 488 755 295 330 615 557 312 123 57 1 0 0 0 0 1 43 56 47 30 2 110 165 329 278 244 14 133 172
3 2 3 8 275 406 876 747 582 518 564 387 174 0 0 0 0 0 0 4 14 26 48 19 2 83 141 174 250 214 123 16 63
0 0 2 4 9 73 582 729 590 508 516 326 96 0 0 0 0 0 0 0 0 0 65 40 40 105 133 156 199 176 182 183 112
0 0 1 5 1 6 214 518 566 516 302 138 16 0 0 0 0 0 0 0 0 0 55 64 56 85 128 115 127 59 75 156 169
0 0 0 0 2 1 0 135 410 290 114 16 0 0 0 0 0 0 8 0 0 0 22 51 56 59 116 85 68 76 64 104 163
0 0 0 0 0 0 0 3 93 228 1 0 0 0 0 0 0 0 0 0 0 0 15 59 48 65 78 79 55 58 67 84 99
0 0 0 0 0 0 0 0 1 53 25 0 0 0 0 0 0 0 0 0 0 0 21 71 63 53 82 63 54 45 53 67 69
0 0 0 0 0 0 0 0 0 0 7 0 0 0 0 0 0 0 0 0 0 0 41 76 75 70 71 63 34 37 42 69 73
0 0 0 0 0 0 0 0 0 0 0 1 0 0 0 0 0 0 0 0 0 4 58 64 80 80 86 53 30 22 24 45 67
0 0 0 0 0 0 0 0 0 0 2 0 1 0 0 0 0 0 0 0 0 4 57 83 82 76 82 59 48 18 7 29 57
0 0 0 0 0 0 0 0 0 0 0 0 0 0 0 0 0 0 0 0 0 0 13 74 99 71 68 75 47 36 5 12 27
0 0 0 0 0 0 0 0 0 0 0 0 0 2 0 0 0 0 0 0 0 0 0 96 76 46 61 71 60 43 20 5 7
0 0 0 0 0 0 0 0 0 0 0 0 0 0 0 0 0 0 0 0 0 0 0 0 0 0 43 52 71 50 33 7 0
0 0 0 0 0 0 0 0 0 0 0 0 0 0 0 0 0 0 0 0 0 0 0 0 0 0 9 34 47 67 29 13 1
0 0 0 0 0 0 0 0 0 0 0 0 0 0 0 0 0 0 0 0 0 0 0 0 0 0 0 2 22 64 36 28 7
0 0 0 0 0 0 0 0 0 0 0 0 0 0 3 6 0 0 0 0 0 0 0 0 0 0 0 0 0 44 61 28 11
0 0 0 0 0 0 0 0 0 0 0 0 0 0 2 2 0 0 0 0 0 0 0 0 0 0 0 0 0 0 26 40 9
0 0 0 0 0 0 0 0 0 0 0 0 0 0 0 0 1 0 0 0 0 0 0 0 0 0 0 0 0 0 0 40 28
0 0 0 0 0 0 0 0 0 0 0 0 0 0 0 0 5 2 0 0 0 0 0 0 0 0 0 0 0 0 0 33 45